SDM601 UWWW-UWKD

Flight info

Callsign SDM601
Flight time 0h 30m
Altitude 24000
Route ODRUT7R ODRUT T793 TONSI TONSI1T
Aircraft A320/M-SDE3FGHIRWY/LB1

Departure

Time 2026-05-07 06:32
Airport Kurumoch International Airport (UWWW)

Arrival

Time 2026-05-07 07:02
Airport Kazan International Airport (UWKD)
Time Latitude Longitude Altitude Speed Heading
2026-05-07 06:21 53.51136 50.15823 441 ft 0 kts 331°
2026-05-07 06:24 53.51129 50.15828 428 ft 2 kts 331°
2026-05-07 06:24 53.51115 50.15841 437 ft 2 kts 331°
2026-05-07 06:25 53.51101 50.15854 431 ft 2 kts 331°
2026-05-07 06:25 53.51087 50.15867 432 ft 2 kts 334°
2026-05-07 06:25 53.51072 50.15868 427 ft 2 kts 25°
2026-05-07 06:25 53.51058 50.15857 435 ft 0 kts 61°
2026-05-07 06:27 53.51079 50.15922 444 ft 12 kts 61°
2026-05-07 06:27 53.51118 50.16039 438 ft 11 kts 62°
2026-05-07 06:28 53.51149 50.16154 437 ft 13 kts 82°
2026-05-07 06:28 53.51096 50.16343 451 ft 19 kts 121°
2026-05-07 06:28 53.51033 50.16518 461 ft 20 kts 120°
2026-05-07 06:28 53.50918 50.16833 468 ft 35 kts 121°
2026-05-07 06:29 53.50733 50.17093 436 ft 40 kts 160°
2026-05-07 06:29 53.50456 50.17261 416 ft 43 kts 162°
2026-05-07 06:29 53.50182 50.17428 413 ft 43 kts 159°
2026-05-07 06:29 53.49899 50.17591 415 ft 42 kts 160°
2026-05-07 06:30 53.49627 50.17759 415 ft 41 kts 160°
2026-05-07 06:30 53.49379 50.17907 420 ft 33 kts 160°
2026-05-07 06:30 53.49279 50.18120 413 ft 26 kts 88°
2026-05-07 06:30 53.49381 50.18325 410 ft 20 kts 359°
2026-05-07 06:31 53.49438 50.18292 410 ft 14 kts 340°
2026-05-07 06:31 53.49787 50.18082 413 ft 90 kts 340°
2026-05-07 06:31 53.50574 50.17614 412 ft 150 kts 340°
2026-05-07 06:31 53.51610 50.17046 937 ft 158 kts 341°
2026-05-07 06:32 53.52656 50.16410 1613 ft 162 kts 341°
2026-05-07 06:32 53.53724 50.15756 2309 ft 164 kts 341°
2026-05-07 06:32 53.54844 50.15085 2786 ft 181 kts 342°
2026-05-07 06:32 53.56109 50.14326 3166 ft 204 kts 341°
2026-05-07 06:33 53.57487 50.13499 3882 ft 213 kts 340°
2026-05-07 06:33 53.58908 50.12656 4664 ft 215 kts 345°
2026-05-07 06:33 53.60359 50.12631 5490 ft 216 kts 21°
2026-05-07 06:33 53.61555 50.14263 6042 ft 237 kts 56°
2026-05-07 06:34 53.62327 50.16880 6485 ft 262 kts 67°
2026-05-07 06:34 53.62940 50.19858 7214 ft 272 kts 68°
2026-05-07 06:34 53.63894 50.22608 8077 ft 274 kts 45°
2026-05-07 06:34 53.65429 50.24493 9005 ft 276 kts 23°
2026-05-07 06:35 53.67280 50.25160 9906 ft 279 kts 359°
2026-05-07 06:35 53.69254 50.24701 10445 ft 297 kts 351°
2026-05-07 06:35 53.71367 50.24017 10726 ft 321 kts 350°
2026-05-07 06:35 53.73623 50.23248 11183 ft 336 kts 349°
2026-05-07 06:36 53.75934 50.22445 11908 ft 342 kts 349°
2026-05-07 06:36 53.78285 50.21635 12676 ft 346 kts 350°
2026-05-07 06:36 53.80669 50.20831 13464 ft 350 kts 350°
2026-05-07 06:36 53.83075 50.20028 14170 ft 354 kts 350°
2026-05-07 06:37 53.85478 50.19228 14833 ft 358 kts 350°
2026-05-07 06:37 53.87941 50.18410 15498 ft 362 kts 350°
2026-05-07 06:37 53.90433 50.17582 16155 ft 366 kts 350°
2026-05-07 06:37 53.92950 50.16746 16813 ft 370 kts 350°
2026-05-07 06:38 53.95502 50.15893 17450 ft 375 kts 350°
2026-05-07 06:38 53.98078 50.15028 18099 ft 379 kts 350°
2026-05-07 06:38 54.00653 50.14161 18676 ft 382 kts 350°
2026-05-07 06:38 54.03285 50.13275 19268 ft 386 kts 350°
2026-05-07 06:39 54.05929 50.12386 19856 ft 389 kts 350°
2026-05-07 06:39 54.08602 50.11486 20461 ft 392 kts 350°
2026-05-07 06:39 54.11299 50.10576 21038 ft 395 kts 350°
2026-05-07 06:39 54.14008 50.09660 21587 ft 399 kts 350°
2026-05-07 06:40 54.16707 50.08749 22123 ft 402 kts 350°
2026-05-07 06:40 54.19458 50.07732 22638 ft 406 kts 345°
2026-05-07 06:40 54.22109 50.05985 23159 ft 411 kts 335°
2026-05-07 06:40 54.24550 50.03403 23638 ft 416 kts 324°
2026-05-07 06:41 54.26708 50.00055 23867 ft 420 kts 314°
2026-05-07 06:41 54.28665 49.96296 23925 ft 428 kts 313°
2026-05-07 06:41 54.30647 49.92457 23929 ft 431 kts 313°
2026-05-07 06:41 54.32570 49.88724 23927 ft 412 kts 313°
2026-05-07 06:42 54.34423 49.85121 23929 ft 393 kts 313°
2026-05-07 06:42 54.36222 49.81733 23929 ft 374 kts 319°
2026-05-07 06:42 54.38290 49.79248 23929 ft 352 kts 336°
2026-05-07 06:42 54.40539 49.77940 23928 ft 332 kts 352°
2026-05-07 06:43 54.42776 49.77729 23933 ft 314 kts
2026-05-07 06:43 54.44852 49.78464 23933 ft 297 kts 20°
2026-05-07 06:43 54.46693 49.79983 23936 ft 293 kts 34°
2026-05-07 06:43 54.48258 49.82183 23936 ft 291 kts 47°
2026-05-07 06:44 54.49471 49.84945 23937 ft 291 kts 61°
2026-05-07 06:44 54.50269 49.88286 23914 ft 312 kts 68°
2026-05-07 06:44 54.51373 49.91493 23301 ft 321 kts 43°
2026-05-07 06:44 54.53296 49.93510 22377 ft 331 kts 15°
2026-05-07 06:45 54.55616 49.93696 21475 ft 342 kts 348°
2026-05-07 06:45 54.57812 49.91972 20566 ft 356 kts 326°
2026-05-07 06:45 54.59853 49.89444 20049 ft 366 kts 326°
2026-05-07 06:45 54.61952 49.87010 19637 ft 367 kts 328°
2026-05-07 06:46 54.64115 49.84663 19210 ft 365 kts 330°
2026-05-07 06:46 54.66287 49.82411 18786 ft 362 kts 330°
2026-05-07 06:46 54.68456 49.80214 18369 ft 360 kts 331°
2026-05-07 06:46 54.70619 49.78034 17909 ft 359 kts 330°
2026-05-07 06:47 54.72775 49.75848 17460 ft 358 kts 330°
2026-05-07 06:47 54.74895 49.73701 17042 ft 354 kts 332°
2026-05-07 06:47 54.77135 49.71995 16562 ft 350 kts 340°
2026-05-07 06:47 54.79432 49.70593 16065 ft 349 kts 340°
2026-05-07 06:48 54.81729 49.69201 15560 ft 348 kts 340°
2026-05-07 06:48 54.84010 49.67818 15045 ft 347 kts 340°
2026-05-07 06:48 54.86288 49.66433 14524 ft 346 kts 340°
2026-05-07 06:48 54.88558 49.65047 13997 ft 346 kts 340°
2026-05-07 06:49 54.90803 49.63671 13426 ft 346 kts 340°
2026-05-07 06:49 54.93076 49.62275 12869 ft 344 kts 340°
2026-05-07 06:49 54.95328 49.60888 12303 ft 341 kts 340°
2026-05-07 06:49 54.97562 49.59512 11750 ft 339 kts 340°
2026-05-07 06:50 54.99782 49.58147 11203 ft 337 kts 340°
2026-05-07 06:50 55.01963 49.56806 10704 ft 334 kts 340°
2026-05-07 06:50 55.04107 49.55490 10574 ft 319 kts 339°
2026-05-07 06:50 55.06156 49.54230 10458 ft 305 kts 339°
2026-05-07 06:51 55.08115 49.53021 10335 ft 293 kts 339°
2026-05-07 06:51 55.10001 49.51852 10141 ft 284 kts 339°
2026-05-07 06:51 55.11855 49.50700 9898 ft 279 kts 339°
2026-05-07 06:51 55.13679 49.49563 9778 ft 277 kts 339°
2026-05-07 06:52 55.15512 49.48528 9642 ft 277 kts 347°
2026-05-07 06:52 55.17441 49.48290 9388 ft 279 kts
2026-05-07 06:52 55.19343 49.49041 9018 ft 281 kts 19°
2026-05-07 06:52 55.21113 49.50385 8639 ft 281 kts 21°
2026-05-07 06:53 55.22906 49.51757 8251 ft 279 kts 20°
2026-05-07 06:53 55.24688 49.53115 7868 ft 278 kts 20°
2026-05-07 06:53 55.26463 49.54464 7486 ft 277 kts 20°
2026-05-07 06:53 55.28232 49.55809 7098 ft 275 kts 20°
2026-05-07 06:54 55.29958 49.57122 6753 ft 273 kts 20°
2026-05-07 06:54 55.31705 49.58454 6418 ft 272 kts 20°
2026-05-07 06:54 55.33437 49.59782 6077 ft 271 kts 20°
2026-05-07 06:54 55.35151 49.61100 5750 ft 267 kts 21°
2026-05-07 06:55 55.36834 49.62395 5431 ft 261 kts 21°
2026-05-07 06:55 55.38486 49.63663 5116 ft 256 kts 20°
2026-05-07 06:55 55.40110 49.64908 4809 ft 251 kts 21°
2026-05-07 06:55 55.41700 49.65973 4500 ft 244 kts 11°
2026-05-07 06:56 55.43361 49.66194 4211 ft 236 kts 353°
2026-05-07 06:56 55.44933 49.65507 3911 ft 231 kts 336°
2026-05-07 06:56 55.46279 49.64034 3657 ft 227 kts 320°
2026-05-07 06:56 55.47300 49.61947 3435 ft 223 kts 307°
2026-05-07 06:57 55.48172 49.59725 3227 ft 218 kts 308°
2026-05-07 06:57 55.49030 49.57546 3009 ft 214 kts 308°
2026-05-07 06:57 55.49857 49.55442 2814 ft 209 kts 308°
2026-05-07 06:57 55.50679 49.53349 2622 ft 205 kts 308°
2026-05-07 06:58 55.51477 49.51315 2492 ft 198 kts 308°
2026-05-07 06:58 55.52250 49.49344 2358 ft 192 kts 307°
2026-05-07 06:58 55.53004 49.47420 2227 ft 189 kts 307°
2026-05-07 06:58 55.53733 49.45556 2116 ft 177 kts 308°
2026-05-07 06:59 55.54184 49.44402 2016 ft 166 kts 308°
2026-05-07 06:59 55.54996 49.42321 1905 ft 144 kts 309°
2026-05-07 06:59 55.55555 49.40891 1829 ft 140 kts 310°
2026-05-07 06:59 55.56103 49.39490 1688 ft 138 kts 310°
2026-05-07 07:00 55.56464 49.38567 1571 ft 137 kts 310°
2026-05-07 07:00 55.57003 49.37179 1427 ft 136 kts 309°
2026-05-07 07:00 55.57535 49.35811 1202 ft 134 kts 310°
2026-05-07 07:00 55.58059 49.34456 1049 ft 134 kts 310°
2026-05-07 07:01 55.58601 49.33090 855 ft 135 kts 308°
2026-05-07 07:01 55.59134 49.31714 681 ft 135 kts 308°
2026-05-07 07:01 55.59662 49.30344 526 ft 135 kts 308°
2026-05-07 07:01 55.60177 49.29017 417 ft 123 kts 306°
2026-05-07 07:02 55.60585 49.27976 413 ft 79 kts 305°
2026-05-07 07:02 55.60825 49.27364 410 ft 55 kts 305°
2026-05-07 07:02 55.61024 49.26853 412 ft 28 kts 303°
2026-05-07 07:02 55.61146 49.26844 418 ft 18 kts 36°
2026-05-07 07:03 55.61205 49.27006 416 ft 16 kts 108°
2026-05-07 07:03 55.61146 49.27188 412 ft 18 kts 125°
2026-05-07 07:03 55.61068 49.27389 416 ft 24 kts 124°
2026-05-07 07:03 55.60970 49.27646 413 ft 26 kts 123°
2026-05-07 07:04 55.60863 49.27917 414 ft 28 kts 125°
2026-05-07 07:04 55.60748 49.28212 414 ft 30 kts 124°
2026-05-07 07:04 55.60628 49.28530 408 ft 32 kts 123°
2026-05-07 07:04 55.60581 49.28911 416 ft 32 kts 94°
2026-05-07 07:05 55.60660 49.29241 416 ft 32 kts 36°
2026-05-07 07:05 55.60812 49.29443 416 ft 13 kts 70°
2026-05-07 07:05 55.60852 49.29552 410 ft 20 kts 35°
2026-05-07 07:05 55.60863 49.29565 416 ft 0 kts 34°